Weather History for Indiana, PA

Change the Weather History Date:

Thursday, March 15, 2012

  Actual Average Record
Temperature  
Mean Temperature 58 °F -  
Max Temperature 73 °F 48 °F 80 °F (1990)
Min Temperature 42 °F 27 °F -4 °F (1993)
Degree Days  
Heating Degree Days 8    
Growing Degree Days 8 (Base 50)    
Moisture  
Dew Point 46 °F    
Average Humidity 74    
Maximum Humidity 100    
Minimum Humidity 38    
Precipitation  
Precipitation 0.00 in - - ()
Sea Level Pressure  
Sea Level Pressure 30.17 in    
Wind  
Wind Speed 2 mph (WSW)    
Max Wind Speed 14 mph    
Max Gust Speed 20 mph    
Visibility 10 miles    
Events      
Averages and records for this station are not official NWS values.
T = Trace of Precipitation, MM = Missing Value Source: NWS Daily Summary

Daily Weather History Graph

Daily Weather History Graph

Search for Another Location

Airport:

Trip Planner

Search our weather history database for the weather conditions in past years. The results will help you decide how hot, cold, wet, or windy it might be!

Date:

Astronomy

Mar. 15, 2012 Rise Set
Actual Time 7:27 AM EDT 7:23 PM EDT
Civil Twilight 7:00 AM EDT 7:50 PM EDT
Nautical Twilight 6:28 AM EDT 8:22 PM EDT
Astronomical Twilight 5:56 AM EDT 8:55 PM EDT
Moon 2:55 AM EDT (3/15) 12:37 PM EDT (3/15)
Length of Visible Light 12h 50m
Length of Day
11h 56m
Last Quarter, 43% of the Moon is Illuminated
Mar 15
Last Quarter
Mar 22
New
Mar 30
First Quarter
Apr 6
Full
Apr 13
Last Quarter

Hourly Weather History & Observations

Time (EDT) Temp. Dew Point Humidity Pressure Visibility Wind Dir Wind Speed Gust Speed Precip Events Conditions
12:15 AM 48.2 °F 44.6 °F 87% 30.18 in 10.0 mi Calm Calm - N/A   Clear
12:35 AM 46.4 °F 44.6 °F 93% 30.18 in 10.0 mi Calm Calm - N/A   Clear
12:55 AM 46.4 °F 44.6 °F 93% 30.18 in 10.0 mi Calm Calm - N/A   Clear
1:15 AM 46.4 °F 44.6 °F 93% 30.17 in 10.0 mi Calm Calm - N/A   Clear
1:35 AM 46.4 °F 44.6 °F 93% 30.17 in 10.0 mi Calm Calm - N/A   Clear
1:55 AM 46.4 °F 44.6 °F 93% 30.17 in 10.0 mi Calm Calm - N/A   Clear
2:15 AM 46.4 °F 44.6 °F 93% 30.17 in 10.0 mi Calm Calm - N/A   Clear
2:35 AM 48.2 °F 44.6 °F 87% 30.17 in 10.0 mi Calm Calm - N/A   Clear
2:55 AM 46.4 °F 44.6 °F 93% 30.17 in 10.0 mi Calm Calm - N/A   Clear
3:15 AM 46.4 °F 44.6 °F 93% 30.17 in 10.0 mi Calm Calm - N/A   Clear
3:35 AM 46.4 °F 44.6 °F 93% 30.17 in 10.0 mi Calm Calm - N/A   Clear
3:55 AM 46.4 °F 44.6 °F 93% 30.17 in 10.0 mi Calm Calm - N/A   Clear
4:15 AM 46.4 °F 44.6 °F 93% 30.16 in 10.0 mi Calm Calm - N/A   Clear
4:35 AM 44.6 °F 44.6 °F 100% 30.16 in 10.0 mi Calm Calm - N/A   Clear
4:55 AM 44.6 °F 42.8 °F 93% 30.16 in 10.0 mi Calm Calm - N/A   Clear
5:15 AM 44.6 °F 44.6 °F 100% 30.16 in 10.0 mi Calm Calm - N/A   Clear
5:35 AM 44.6 °F 42.8 °F 93% 30.16 in 10.0 mi Calm Calm - N/A   Clear
5:55 AM 44.6 °F 42.8 °F 93% 30.16 in 10.0 mi Calm Calm - N/A   Clear
6:15 AM 42.8 °F 42.8 °F 100% 30.16 in 10.0 mi Calm Calm - N/A   Clear
6:35 AM 42.8 °F 42.8 °F 100% 30.16 in 10.0 mi Calm Calm - N/A   Clear
6:55 AM 42.8 °F 42.8 °F 100% 30.17 in 10.0 mi Calm Calm - N/A   Clear
7:15 AM 42.8 °F 42.8 °F 100% 30.18 in 10.0 mi Calm Calm - N/A   Clear
7:35 AM 42.8 °F 42.8 °F 100% 30.18 in 10.0 mi Calm Calm - N/A   Clear
7:55 AM 42.8 °F 42.8 °F 100% 30.18 in 10.0 mi Calm Calm - N/A   Clear
8:15 AM 44.6 °F 44.6 °F 100% 30.18 in 10.0 mi Calm Calm - N/A   Clear
8:35 AM 48.2 °F 46.4 °F 93% 30.19 in 10.0 mi Calm Calm - N/A   Clear
8:55 AM 51.8 °F 48.2 °F 88% 30.20 in 10.0 mi Calm Calm - N/A   Clear
9:15 AM 53.6 °F 48.2 °F 82% 30.21 in 10.0 mi Calm Calm - N/A   Clear
9:35 AM 57.2 °F 50.0 °F 77% 30.20 in 10.0 mi Calm Calm - N/A   Clear
9:55 AM 59.0 °F 48.2 °F 67% 30.20 in 10.0 mi Calm Calm - N/A   Clear
10:15 AM 60.8 °F 48.2 °F 63% 30.19 in 10.0 mi SW 3.5 mph - N/A   Clear
10:35 AM 60.8 °F 48.2 °F 63% 30.20 in 10.0 mi WSW 5.8 mph - N/A   Clear
10:55 AM 60.8 °F 48.2 °F 63% 30.20 in 10.0 mi Calm Calm - N/A   Scattered Clouds
11:15 AM 62.6 °F 50.0 °F 63% 30.21 in 10.0 mi Calm Calm - N/A   Scattered Clouds
11:35 AM 62.6 °F 48.2 °F 59% 30.21 in 10.0 mi Calm Calm - N/A   Clear
11:55 AM 64.4 °F 50.0 °F 59% 30.21 in 10.0 mi West 4.6 mph - N/A   Clear
12:15 PM 66.2 °F 48.2 °F 52% 30.21 in 10.0 mi WSW 5.8 mph - N/A   Clear
12:35 PM 66.2 °F 48.2 °F 52% 30.21 in 10.0 mi West 4.6 mph - N/A   Clear
12:55 PM 69.8 °F 48.2 °F 46% 30.21 in 10.0 mi West 9.2 mph - N/A   Clear
1:15 PM 69.8 °F 46.4 °F 43% 30.20 in 10.0 mi West 9.2 mph - N/A   Clear
1:35 PM 69.8 °F 48.2 °F 46% 30.19 in 10.0 mi West 3.5 mph - N/A   Clear
1:55 PM 71.6 °F 46.4 °F 41% 30.18 in 10.0 mi West 4.6 mph - N/A   Clear
2:15 PM 73.4 °F 46.4 °F 38% 30.17 in 10.0 mi West 8.1 mph 18.4 mph N/A   Clear
2:35 PM 71.6 °F 48.2 °F 43% 30.16 in 10.0 mi WSW 8.1 mph - N/A   Clear
2:55 PM 71.6 °F 48.2 °F 43% 30.15 in 10.0 mi WSW 10.4 mph - N/A   Clear
3:15 PM 71.6 °F 46.4 °F 41% 30.15 in 10.0 mi West 11.5 mph 16.1 mph N/A   Clear
3:35 PM 71.6 °F 46.4 °F 41% 30.14 in 10.0 mi WSW 13.8 mph 19.6 mph N/A   Clear
3:55 PM 71.6 °F 48.2 °F 43% 30.13 in 10.0 mi WSW 13.8 mph 18.4 mph N/A   Clear
4:15 PM 69.8 °F 48.2 °F 46% 30.13 in 10.0 mi WSW 11.5 mph - N/A   Clear
4:35 PM 71.6 °F 50.0 °F 46% 30.13 in 10.0 mi West 6.9 mph 17.3 mph N/A   Clear
4:55 PM 69.8 °F 50.0 °F 49% 30.12 in 10.0 mi SW 9.2 mph - N/A   Clear
5:15 PM 69.8 °F 50.0 °F 49% 30.12 in 10.0 mi WSW 5.8 mph - N/A   Clear
5:35 PM 69.8 °F 51.8 °F 53% 30.12 in 10.0 mi West 5.8 mph - N/A   Clear
5:55 PM 69.8 °F 50.0 °F 49% 30.11 in 10.0 mi WSW 4.6 mph - N/A   Clear
6:15 PM 69.8 °F 50.0 °F 49% 30.11 in 10.0 mi SW 5.8 mph - N/A   Clear
6:35 PM 68.0 °F 51.8 °F 56% 30.11 in 10.0 mi SSW 5.8 mph - N/A   Clear
6:55 PM 66.2 °F 51.8 °F 60% 30.11 in 10.0 mi Calm Calm - N/A   Clear
7:15 PM 66.2 °F 51.8 °F 60% 30.11 in 10.0 mi SSW 4.6 mph - N/A   Clear
7:35 PM 64.4 °F 50.0 °F 59% 30.11 in 10.0 mi Calm Calm - N/A   Clear
7:55 PM 64.4 °F 50.0 °F 59% 30.12 in 10.0 mi Calm Calm - N/A   Clear
8:15 PM 64.4 °F 50.0 °F 59% 30.11 in 10.0 mi Calm Calm - N/A   Clear
8:35 PM 64.4 °F 50.0 °F 59% 30.11 in 10.0 mi Calm Calm - N/A   Clear
8:55 PM 64.4 °F 50.0 °F 59% 30.11 in 10.0 mi SW 8.1 mph - N/A   Clear
9:15 PM 62.6 °F 50.0 °F 63% 30.13 in 10.0 mi SW 6.9 mph - N/A   Clear
9:35 PM 62.6 °F 51.8 °F 68% 30.14 in 10.0 mi SW 4.6 mph - N/A   Scattered Clouds
9:55 PM 62.6 °F 51.8 °F 68% 30.15 in 10.0 mi SW 8.1 mph - N/A   Scattered Clouds
10:15 PM 62.6 °F 51.8 °F 68% 30.15 in 10.0 mi SW 4.6 mph - N/A   Scattered Clouds
10:35 PM 60.8 °F 51.8 °F 72% 30.14 in 10.0 mi SW 4.6 mph - N/A   Clear
10:55 PM 60.8 °F 51.8 °F 72% 30.15 in 10.0 mi WSW 4.6 mph - N/A   Scattered Clouds
11:15 PM 60.8 °F 51.8 °F 72% 30.14 in 10.0 mi SW 4.6 mph - N/A   Overcast
11:35 PM 60.8 °F 51.8 °F 72% 30.15 in 10.0 mi WSW 4.6 mph - N/A   Overcast
11:55 PM 60.8 °F 51.8 °F 72% 30.15 in 10.0 mi WSW 4.6 mph - N/A   Overcast